Regional Weather Roundup
Issued by NWS Upton, NY

Current Version | Previous Version | Text Only | Print | Product List | Glossary On
Versions: 1 2 3 4 5 6 7 8 9 10 11 12 13 14 15 16 17 18 19 20 21 22 23 24 25 26 27 28 29 30 31 32 33 34 35 36 37 38 39 40 41 42 43 44 45 46 47 48 49 50
000
ASUS41 KOKX 161305
RWROKX

REGIONAL WEATHER ROUNDUP
NATIONAL WEATHER SERVICE NEW YORK NY
900 AM EDT TUE SEP 16 2014

NOTE: "FAIR" INDICATES FEW OR NO CLOUDS BELOW 12,000 FEET WITH NO
SIGNIFICANT WEATHER AND/OR OBSTRUCTIONS TO VISIBILITY.

NYZ071-072-176-178-NJZ106-104-161400-
NEW YORK CITY METRO AREA


CITY           SKY/WX    TMP DP  RH WIND       PRES   REMARKS
CENTRAL PARK   RAIN      58  55  90 CALM      30.05S FOG
LAGUARDIA APRT RAIN      60  57  89 N13       30.02R FOG
KENNEDY INTL   RAIN      63  58  83 W10       30.02R
NEWARK/LIBERTY HVY RAIN  59  57  94 NW8       30.04R FOG
BRNX BOT. GARD   N/A     57  55  94 W5        30.05R
TETERBORO      LGT RAIN  57  54  89 N6        30.02S FOG
$$

NYZ177-179-078>081-161400-
LONG ISLAND NEW YORK

CITY           SKY/WX    TMP DP  RH WIND       PRES   REMARKS
FARMINGDALE    LGT RAIN  61  56  83 N3        30.02R
ISLIP          LGT RAIN  64  55  72 CALM      30.01R
SHIRLEY        CLOUDY    64  57  78 W3        30.02R
WESTHAMPTON    CLOUDY    66  53  63 S6        30.03R
MONTAUK POINT    N/A     67  54  63 VRB5      30.02F
$$

NYZ052-065-067-161400-
HUDSON VALLEY

CITY           SKY/WX    TMP DP  RH WIND       PRES   REMARKS
WHITE PLAINS   LGT RAIN  57  54  89 NW6       30.03R FOG
NEWBURGH       DRIZZLE   54  54 100 CALM      30.04S
MONTGOMERY     LGT RAIN  54  52  93 CALM      30.02F
POUGHKEEPSIE   LGT RAIN  56  54  93 SE3       30.02F FOG
ALBANY         LGT RAIN  55  51  86 S6        30.02S
$$

NJZ001-105-106-008-010-013-015-019>022-104-161400-
NEW JERSEY

CITY           SKY/WX    TMP DP  RH WIND       PRES   REMARKS
NEWARK/LIBERTY HVY RAIN  59  57  94 NW8       30.04R FOG
TETERBORO      LGT RAIN  57  54  89 N6        30.02S FOG
CALDWELL       LGT RAIN  55  53  93 CALM      30.03F FOG
MORRISTOWN     LGT RAIN  57  57 100 CALM      30.02F FOG
SOMERVILLE     CLOUDY    57  55  93 MISG      29.99F
LINDEN         RAIN      62  60  94 N6        30.04R
SUSSEX         CLOUDY    57  54  89 CALM      30.03R
ANDOVER          N/A     55  54  96 VRB3      30.03R
TRENTON        CLOUDY    58  56  93 N7        30.00R FOG
MILLVILLE      PTSUNNY   67  64  90 W7        29.99R
ATLANTIC CITY  CLOUDY    66  63  90 S9        29.98F
WRIGHTSTOWN    CLOUDY    61  60  98 W2        29.97S
TOMS RIVER     CLOUDY    61  57  88 CALM      29.99F
BELMAR         CLOUDY    61  55  82 S3        29.99F
$$

PAZ047>061-062-071-161400-
EASTERN PENNSYLVANIA

CITY           SKY/WX    TMP DP  RH WIND       PRES   REMARKS
PHILADELPHIA   PTSUNNY   64  60  87 W8        30.00S
ALLENTOWN      MOSUNNY   58  54  86 NW3       30.03R
SCRANTON       CLOUDY    57  51  80 CALM      30.03S
$$

CTZ002-004>006-009-010-012-RIZ004-006-007-MAZ004-011-015-161400-
SOUTHERN NEW ENGLAND
 IN CT

CITY           SKY/WX    TMP DP  RH WIND       PRES   REMARKS
BRADLEY INTL   CLOUDY    54  50  86 NW6       30.04R
HARTFORD       CLOUDY    55  50  83 NW6       30.04R
DANBURY        LGT RAIN  55  53  93 SE5       30.05R FOG
WTRBRY/OXFORD  LGT RAIN  55  48  76 N7        30.07R FOG
BRIDGEPORT     CLOUDY    61  54  77 NW6       30.03R
MERIDEN        CLOUDY    55  49  80 NW6       30.04R
NEW HAVEN      CLOUDY    60  51  72 N3        30.02R
CHESTER        FAIR      57  54  88 CALM      30.04R
GROTON         PTSUNNY   62  55  77 E5        30.00F
WILLIMANTIC    PTSUNNY   55  49  80 W3        30.03S

 IN RI

CITY           SKY/WX    TMP DP  RH WIND       PRES   REMARKS
PROVIDENCE     PTSUNNY   60  53  77 CALM      30.04F
BLOCK ISLAND   CLOUDY    64  48  55 S5        30.03R
WESTERLY       MOSUNNY   62  54  74 E7        30.01F

 IN MA

CITY           SKY/WX    TMP DP  RH WIND       PRES   REMARKS
BOSTON         CLOUDY    57  51  80 S5        30.02F
WORCESTER      LGT RAIN  55  49  80 SW3       30.03S
WESTFIELD      LGT RAIN  53  50  89 E3        30.03R
PROVINCETOWN   CLOUDY    63  54  72 S8        30.04F
NANTUCKET      CLOUDY    64  52  64 SE9       30.04F
$$

ANZ330-335-338-340-345-350-353-355-161400-
COASTAL MARINE OBSERVATIONS


STATION/POSITION TIME  SKY/WX   TEMP    WIND        PRES    VSBY  WAVE
                                AIR SEA DIR/SP/G                  HT/PER
                 (UTC)          (F)     (DEG/KT/KT) (MB)    (MI)  (FT/S)
NY HARB ENTRANCE NOT AVBL
4S FIRE IS       NOT AVBL
23SW MTP         1300                                 N/A           1/ 8
HUDSON CANYON    1300            69 73  220/  2/  4 1016.4          2/12
EXECUTION ROCKS  1300            63 71  350/  8/ 10   N/A
WESTERN LI SOUND 1300            63     330/  8/ 12   N/A           0
CENTRAL LI SOUND 1200            66 71  180/ 10/ 12   N/A           1/ 2
EASTERN LI SOUND 1200            67 68  150/  8/ 10   N/A
ROBBINS REEF     1200            60     280/  6/  7   N/A
$$


>>>>>>>>>>>>>>>>>>>>>>>>>>>> KEY <<<<<<<<<<<<<<<<<<<<<<<<<<<
>                                                          <
>     SKY/WX - SKY CONDITION/PRESENT WEATHER               <
>     TMP    - TEMPERATURE IN FAHRENHEIT                   <
>     DP     - DEWPOINT IN FAHRENHEIT                      <
>     RH     - RELATIVE HUMIDITY IN PERCENT                <
>     WIND   - DIRECTION AND SPEED IN MPH                  <
>     PRES   - MEAN SEA LEVEL PRESSURE IN INCHES OF HG     <
>     WCI    - WIND CHILL INDEX                            <
>     VSB    - VISIBILITY IN MILES                         <
>     HX     - HEAT INDEX                                  <
>     TC     - TEMPERATURE IN CELSIUS                      <
>     VRB    - VARIABLE WIND DIRECTION                     <
>                                                          <
>>>>>>>>>>>>>>>>>>>>>>>>>>>> KEY <<<<<<<<<<<<<<<<<<<<<<<<<<<




USA.gov is the U.S. government's official web portal to all federal, state and local government web resources and services.